Lapse_Rate
3.9 3.8 4.1 3.4 3.2 3.2 2.8 2.4 2.0 1.7 1.3 1.2 0.4 0.6 0.9 0.9 0.7 0.6 0.4 0.2 0.2 0.6 1.1 1.0 1.7 1.3 0.8 3.0 2.6 5.0 5.4 5.6 6.3 6.5 6.8 6.9 6.8 6.2 6.5 6.3 5.7 6.5 6.5 6.2 6.2 5.8 5.4
4.0 3.7 3.8 3.8 2.9 3.1 3.0 3.0 2.4 1.8 1.1 1.1 1.0 0.3 0.6 0.7 0.7 0.5 0.4 0.3 0.1 0.6 1.2 1.7 2.5 2.7 3.2 6.1 6.1 5.7 4.8 5.2 6.1 6.3 6.6 6.8 6.8 6.4 5.6 6.2 6.4 5.8 6.2 6.4 6.4 6.4 6.2
3.8 3.6 3.5 3.6 3.7 3.3 4.0 3.3 2.6 1.9 1.6 1.5 1.0 0.9 0.2 0.6 0.7 0.6 0.4 0.5 0.0 0.7 1.3 2.0 3.0 3.3 3.1 2.9 4.6 3.0 3.0 5.8 6.0 6.8 6.5 7.0 6.3 5.8 5.9 6.5 5.8 6.1 6.5 6.5 6.5 6.0 6.4
3.5 3.4 3.4 3.3 3.1 2.8 3.3 3.5 2.8 2.0 1.7 1.5 1.3 0.9 0.6 0.5 0.7 0.2 0.3 0.3 0.3 0.6 1.3 2.5 3.3 3.5 3.0 4.0 3.7 2.7 4.9 5.6 5.7 5.5 6.0 6.3 5.8 5.5 5.7 5.6 6.1 6.5 6.5 6.5 6.5 6.5 6.3
4.1 3.4 3.6 3.1 2.7 3.0 3.3 4.1 3.2 2.5 2.2 1.8 1.2 0.9 0.6 0.9 0.8 0.4 0.5 0.4 0.5 1.3 3.0 3.1 2.3 3.8 3.5 5.3 4.7 6.0 5.7 6.2 6.3 6.0 5.9 7.9 6.7 5.3 6.1 6.5 6.5 6.5 6.5 6.5 6.5 6.5 6.5
3.8 3.9 3.6 3.5 2.9 3.3 3.6 3.9 3.1 2.7 2.4 1.8 1.6 1.2 0.9 1.0 1.1 0.9 0.4 0.6 1.5 4.3 3.5 4.3 5.0 5.4 4.0 6.3 5.6 5.7 5.6 6.0 5.8 6.2 6.3 6.5 5.2 6.5 6.5 6.5 6.5 6.5 6.5 6.5 6.5 6.5 6.5
4.4 4.5 3.8 3.5 3.9 3.7 4.6 4.7 4.5 3.3 2.5 2.0 2.2 1.4 1.2 1.2 1.3 1.5 0.6 1.1 2.9 5.1 2.9 5.6 5.8 4.7 3.2 4.1 4.9 5.5 6.1 6.6 6.4 6.4 6.5 6.2 6.5 6.5 6.5 6.5 6.5 6.5 6.5 6.5 6.5 6.5 6.5
4.5 4.8 4.1 3.6 4.1 4.5 4.8 5.9 4.5 3.9 3.5 3.1 2.2 1.6 1.3 1.5 1.7 2.1 2.2 4.6 6.7 5.9 5.4 3.3 3.0 4.0 3.3 4.1 4.7 5.3 6.3 6.1 6.5 6.5 6.5 6.5 6.5 6.5 6.5 6.5 6.5 6.5 6.5 6.5 6.5 6.5 6.5
5.3 5.4 3.8 3.9 4.6 4.0 6.2 5.8 5.8 4.9 4.2 3.2 2.4 1.8 1.3 1.6 2.3 3.6 4.7 6.2 6.4 6.4 6.1 4.4 4.8 5.2 5.8 4.9 6.0 5.8 6.5 6.5 6.5 6.5 6.5 6.5 6.5 6.5 6.5 6.5 6.5 6.5 6.5 6.5 6.5 6.5 6.5
5.8 4.5 4.2 3.8 4.5 4.0 6.0 7.0 6.0 5.4 4.5 3.3 2.8 2.1 1.7 1.5 3.5 2.5 5.1 5.8 5.6 6.0 6.5 6.5 6.4 6.7 6.7 6.3 6.4 7.4 6.9 6.7 6.5 6.5 6.5 6.5 6.5 6.5 6.5 6.5 6.5 6.5 6.5 6.5 6.5 6.5 6.5
6.2 4.7 4.6 4.0 4.3 4.9 5.9 7.0 5.9 5.1 4.9 3.7 2.8 2.4 1.8 2.7 0.8 4.1 5.4 5.3 5.6 5.6 6.5 6.5 6.6 7.7 6.6 6.5 6.3 6.5 6.8 6.6 6.5 6.5 6.5 6.5 6.5 6.5 6.5 6.5 6.5 6.5 6.5 6.5 6.5 6.5 6.5
7.0 5.1 4.1 4.7 4.6 5.3 6.2 6.2 5.4 5.5 5.5 4.1 3.1 2.4 3.0 1.6 0.8 3.8 4.4 4.7 5.7 6.5 6.5 6.5 6.5 6.5 6.5 6.4 6.3 6.4 6.5 6.6 6.2 6.5 6.5 6.5 6.4 6.5 6.5 6.5 6.5 6.5 6.5 6.5 6.5 6.5 6.5
5.8 4.8 3.8 4.6 4.9 5.1 6.2 6.6 5.0 5.0 5.5 4.5 3.4 3.3 2.6 2.4 3.1 4.0 4.1 5.0 6.5 6.5 6.5 6.5 6.5 6.5 6.5 6.5 6.5 6.5 6.5 6.5 6.5 6.5 6.5 6.5 6.5 6.5 6.5 6.5 6.5 6.5 6.5 6.5 6.5 6.5 6.5
5.7 4.6 4.7 5.0 4.4 5.3 5.8 6.3 5.3 5.6 5.9 4.5 3.5 3.2 2.3 2.7 3.5 4.0 4.5 6.4 6.5 6.5 6.5 6.5 6.5 6.5 6.5 6.5 6.5 6.5 6.5 6.5 6.5 6.5 6.5 6.5 6.5 6.5 6.5 6.5 6.5 6.5 6.5 6.5 6.5 6.5 6.5
5.0 4.4 5.3 5.0 4.8 5.5 6.2 5.5 5.4 6.2 5.8 4.5 3.7 1.0 2.1 2.9 3.6 3.2 5.0 6.5 6.5 6.5 6.5 6.5 6.5 6.5 6.5 6.5 6.5 6.5 6.5 6.5 6.5 6.5 6.5 6.5 6.5 6.5 6.5 6.5 6.5 6.5 6.5 6.5 6.5 6.5 6.5
4.7 4.9 5.7 5.1 5.4 5.8 5.9 5.9 5.4 5.8 5.3 4.4 2.1 2.9 3.7 4.6 4.3 4.1 6.0 6.5 6.5 6.5 6.5 6.5 6.5 6.5 6.5 6.5 6.5 6.5 6.5 6.5 6.5 6.5 6.5 6.5 6.5 6.5 6.5 6.5 6.5 6.5 6.5 6.5 6.5 6.5 6.5
4.7 5.6 5.7 4.8 5.9 6.2 6.0 6.7 6.3 5.6 5.6 4.2 2.8 4.0 4.6 4.8 4.8 4.5 6.5 6.5 6.5 6.6 6.5 6.5 6.5 6.5 6.5 6.5 6.5 6.5 6.5 6.5 6.5 6.5 6.5 6.5 6.5 6.5 6.5 6.5 6.5 6.5 6.5 6.5 6.5 6.5 6.5
6.3 5.9 5.0 5.7 6.3 6.1 5.9 7.5 6.1 5.6 4.9 3.8 3.6 6.4 4.3 4.6 5.1 5.5 6.5 6.5 6.6 6.5 6.5 6.5 6.5 6.5 6.5 6.5 6.5 6.5 6.5 6.5 6.6 6.6 6.5 6.5 6.5 6.5 6.5 6.5 6.5 6.5 6.5 6.5 6.5 6.5 6.5
6.6 6.6 6.5 6.9 6.9 6.9 7.4 6.4 5.8 4.8 4.6 2.6 4.1 5.3 5.3 5.5 6.5 6.5 6.4 6.5 6.5 6.5 6.5 6.5 6.5 6.5 6.5 6.5 6.5 6.5 6.5 6.1 6.1 6.5 6.5 6.5 6.5 6.5 6.5 6.5 6.5 6.5 6.5 6.5 6.5 6.5 6.5
6.9 6.7 7.0 7.1 7.2 7.5 8.1 6.3 5.2 5.4 4.5 2.6 3.1 6.5 5.4 4.4 3.6 6.4 6.5 6.5 6.5 6.5 6.5 6.5 6.5 6.4 6.5 6.5 6.5 6.5 6.5 6.5 6.1 6.5 6.9 6.6 6.5 6.5 6.5 6.5 6.5 6.5 6.5 6.5 6.5 6.5 6.5
7.0 7.2 7.4 7.5 7.4 7.8 7.3 6.0 6.1 4.8 4.3 2.9 3.3 5.9 5.6 6.5 6.0 6.5 6.5 6.5 6.5 6.5 6.5 6.3 6.5 6.5 6.5 6.5 6.5 6.5 6.5 6.5 6.4 6.6 6.5 6.5 6.5 6.5 6.5 6.5 6.5 6.5 6.5 6.5 6.5 6.5 6.5
7.3 7.4 7.2 7.3 7.6 7.8 6.9 6.0 5.0 4.8 4.3 3.2 3.5 5.4 4.2 5.5 5.6 6.5 6.5 6.5 6.5 6.5 6.5 6.5 6.5 6.5 6.5 6.5 6.5 6.5 6.5 6.5 6.5 6.5 6.5 6.5 6.5 6.5 6.5 6.5 6.5 6.5 6.5 6.5 6.5 6.5 6.5
7.4 7.5 7.4 7.5 7.9 8.2 5.7 6.5 5.4 5.0 4.2 3.4 3.2 3.4 3.0 6.2 6.4 6.5 6.5 6.5 6.5 6.4 6.5 6.3 6.5 6.5 6.5 6.5 5.3 5.9 6.2 6.4 6.5 6.5 6.5 6.5 6.5 6.5 6.5 6.5 6.5 6.5 6.5 6.5 6.5 6.5 6.5
7.7 7.6 8.0 8.1 8.1 8.2 7.2 6.0 5.3 5.1 4.0 2.4 2.1 2.3 3.1 6.5 6.5 6.5 6.5 6.4 6.5 6.5 6.5 6.4 6.2 6.5 6.1 5.1 4.0 4.6 5.5 6.6 6.6 6.5 6.6 6.5 6.5 6.5 6.5 6.5 6.5 6.5 6.5 6.5 6.5 6.5 6.5
8.0 8.3 8.3 8.5 8.6 7.6 6.7 6.2 6.0 5.9 4.8 1.8 1.0 2.3 2.6 6.5 6.2 6.5 6.4 6.5 6.1 5.9 6.4 6.5 6.4 6.7 4.6 4.7 6.5 6.5 6.5 6.5 6.5 6.5 6.5 6.5 6.5 6.5 6.5 6.5 6.5 6.5 6.5 6.5 6.5 6.5 6.5
8.2 8.3 8.4 8.3 8.0 7.6 6.7 6.6 6.6 6.3 4.6 1.6 1.0 0.7 1.9 5.0 6.4 6.2 6.2 6.2 6.5 6.5 6.5 6.3 5.6 4.5 4.6 6.5 6.5 6.5 6.5 6.5 6.5 6.5 6.5 6.5 6.5 6.5 6.5 6.5 6.5 6.5 6.5 7.0 6.6 6.5 6.7
8.2 8.0 7.8 7.7 7.8 7.7 7.0 7.1 6.6 6.1 4.9 2.5 1.9 1.3 1.8 3.1 5.0 5.6 5.9 6.1 5.0 5.9 6.5 6.0 5.6 5.2 4.6 6.5 6.5 6.5 6.5 6.5 6.5 6.5 6.5 6.5 6.5 6.5 6.5 6.5 6.5 6.5 6.6 7.0 6.5 6.5 7.0
8.0 7.9 7.9 7.9 7.7 7.6 7.2 7.0 6.5 6.0 5.3 3.3 2.5 1.7 2.0 2.9 4.3 5.1 5.5 5.0 4.8 4.3 6.5 5.0 6.0 5.4 6.1 6.5 6.5 6.5 6.5 6.5 6.5 6.5 6.5 6.5 6.5 6.5 6.5 6.5 6.5 6.6 6.7 6.5 6.6 7.0 7.0
7.6 7.7 7.9 8.0 8.1 7.9 7.3 6.9 6.6 6.2 5.8 4.3 2.7 2.3 1.6 1.8 3.9 2.5 3.6 5.0 5.7 4.9 3.6 4.4 5.6 6.1 5.6 6.5 6.5 6.5 6.5 6.5 6.5 6.5 6.5 6.5 6.5 6.5 6.5 6.5 6.7 7.0 7.0 6.7 6.6 6.7 7.0
Wind_Speed
28 27 26 25 24 21 21 18 15 12 9 8 5 6 10 13 15 17 19 21 23 21 18 15 14 13 6 5 7 6 18 18 6 2 3 4 3 2 5 4 5 16 15 17 14 13 11
31 30 29 28 27 25 23 20 16 14 11 9 8 4 8 13 17 19 20 22 24 21 18 13 9 4 2 3 1 6 7 7 4 2 2 2 4 6 8 7 8 8 18 20 18 18 12
35 34 32 30 28 25 24 21 19 16 12 11 8 7 5 12 16 19 21 25 26 23 18 12 5 3 2 10 5 16 10 3 3 3 3 3 4 4 4 7 9 8 16 21 22 10 8
38 37 35 33 32 29 27 23 20 17 15 13 9 6 6 11 16 20 23 25 27 27 14 6 10 3 6 5 10 8 5 6 4 7 4 8 8 6 4 7 4 16 11 19 18 9 11
39 39 39 36 35 32 28 24 21 18 16 13 9 6 6 11 16 20 24 27 28 13 4 16 5 3 7 8 4 5 5 4 4 6 4 7 6 7 3 4 6 7 18 21 29 19 17
42 41 41 38 37 34 30 27 24 21 18 13 9 5 5 10 15 19 26 26 14 8 10 5 3 0 5 2 5 6 5 5 6 4 5 2 2 1 2 3 13 13 11 12 17 18 18
43 43 42 40 38 35 31 29 23 20 18 13 10 4 5 9 13 18 14 4 5 3 6 2 2 4 6 6 6 5 5 5 3 2 3 3 1 7 10 6 11 11 14 21 20 18 23
45 44 44 42 39 36 34 29 25 22 17 13 10 4 4 8 12 18 2 4 4 3 6 2 4 7 9 3 5 9 1 2 2 8 3 5 16 13 12 12 12 16 21 26 24 17 12
45 47 45 43 41 38 33 31 23 21 17 14 9 5 2 7 13 3 4 3 1 6 1 6 5 5 6 6 5 7 5 4 7 12 9 12 15 11 9 13 16 20 18 19 21 20 13
46 44 43 43 42 40 35 30 26 20 18 13 9 4 3 7 2 1 3 4 2 2 4 3 1 2 4 4 3 14 2 1 3 5 5 10 12 16 17 19 15 20 14 17 13 8 12
42 46 46 45 44 40 36 31 26 22 17 12 11 4 1 4 5 4 2 4 3 3 1 2 1 1 7 2 7 4 4 2 5 10 2 10 12 11 13 19 13 18 13 16 19 15 8
44 45 44 45 43 38 35 33 27 20 17 14 9 5 4 7 2 2 1 2 3 2 3 2 2 5 8 3 8 5 4 1 6 5 5 16 3 5 11 17 13 11 5 12 14 5 7
42 46 48 47 43 41 35 31 29 23 17 14 9 5 3 5 5 3 1 3 1 3 3 3 3 6 4 7 6 7 7 9 5 7 7 11 3 5 7 6 5 3 2 3 3 1 5
43 43 47 47 46 41 39 34 29 25 20 15 9 5 4 4 6 3 2 2 4 3 1 2 4 4 2 5 6 9 7 5 2 6 8 5 9 4 4 5 5 5 6 4 3 1 3
46 44 44 47 46 43 39 35 29 23 18 14 9 1 2 2 13 3 3 2 3 3 1 3 2 3 4 4 1 5 4 4 3 6 6 6 6 3 11 16 6 2 4 6 7 5 2
47 44 43 46 44 42 37 34 31 25 20 16 4 3 1 7 14 3 3 4 4 1 2 1 1 1 2 5 7 8 4 3 6 9 11 4 7 4 7 0 3 4 3 3 1 3 4
50 47 43 45 44 42 36 33 30 26 21 16 3 4 2 10 3 3 3 4 3 3 3 2 4 1 3 3 2 4 5 10 4 15 16 10 5 7 3 3 2 4 4 4 4 3 2
46 46 43 44 41 39 38 33 30 27 21 6 3 4 3 3 2 0 3 4 2 2 1 0 3 5 5 2 2 2 6 4 9 12 11 5 4 5 8 4 4 2 8 4 2 1 2
42 42 39 41 41 37 33 32 28 25 19 4 4 3 1 3 3 1 3 3 2 2 1 2 2 4 2 4 1 5 4 8 12 10 4 5 4 6 6 1 1 2 6 6 4 2 4
38 38 37 38 38 35 31 29 26 23 16 2 4 3 2 2 1 6 4 3 3 0 2 2 3 4 1 2 4 5 4 8 13 3 13 3 4 3 7 12 10 7 6 2 3 2 8
35 34 36 36 34 33 30 27 23 17 12 2 2 3 4 4 3 5 4 4 4 1 1 1 1 1 2 2 4 5 6 7 6 4 7 2 3 4 11 14 15 20 17 5 10 11 7
33 33 34 33 33 30 28 23 19 15 11 3 4 4 2 4 5 6 4 6 7 3 3 2 2 5 3 4 7 13 9 0 7 5 6 4 4 2 4 16 20 18 22 22 17 11 10
33 32 31 30 29 28 24 20 17 12 4 3 1 2 4 2 4 5 5 6 7 5 1 4 2 1 3 6 7 15 14 15 13 9 4 3 3 3 2 7 5 11 16 17 14 20 7
32 32 30 28 27 26 22 19 14 9 4 2 2 3 4 1 3 4 7 3 5 2 3 1 3 1 4 8 12 9 8 10 9 12 11 4 5 2 2 1 5 2 11 8 18 16 14
28 29 29 28 26 24 21 18 13 10 6 3 2 3 3 3 2 4 7 6 3 4 2 3 1 2 6 5 4 5 4 5 3 4 4 4 2 2 2 5 5 3 7 6 6 9 14
26 29 28 27 25 23 21 17 15 12 9 4 3 1 3 6 1 0 4 2 3 1 4 2 4 4 6 2 2 2 2 3 4 8 3 4 8 2 3 3 2 4 15 9 4 4 10
25 25 25 26 24 22 20 17 16 13 11 5 3 3 4 4 2 2 3 4 4 2 2 2 5 6 4 3 2 2 2 2 3 5 5 4 3 6 4 3 4 11 11 4 2 2 5
24 25 26 24 22 21 19 17 16 13 9 4 2 6 4 3 1 2 1 4 2 3 3 3 3 4 4 4 2 2 2 2 2 2 3 4 3 3 2 3 2 14 4 3 4 4 6
23 25 23 22 21 19 18 16 15 13 10 6 3 3 3 4 3 1 2 2 3 6 4 1 3 1 2 3 1 1 2 3 3 1 4 3 3 2 4 3 3 5 9 8 6 6 4
Wind_Direction
209 211 215 210 207 207 210 214 216 216 216 239 234 286 309 317 321 324 325 321 315 319 320 322 320 329 1 14 257 341 346 342 346 329 340 350 318 248 200 237 273 255 277 283 291 283 297
208 208 213 211 203 203 208 214 215 214 213 233 256 250 309 318 320 321 320 316 309 313 310 312 306 339 47 320 345 312 330 312 335 68 335 177 245 252 271 230 222 294 295 300 297 298 284
209 206 209 208 202 201 206 209 208 211 219 233 244 278 314 314 315 317 319 313 308 306 304 296 260 157 139 244 303 322 317 228 212 191 226 239 220 174 296 312 258 252 299 298 289 305 286
209 205 205 205 197 198 202 204 204 205 215 224 238 264 306 315 314 319 317 308 305 306 311 240 174 140 244 251 293 306 273 307 229 238 212 215 229 226 194 227 281 270 279 285 285 320 304
208 205 205 203 198 196 195 200 196 204 214 223 229 257 311 317 319 321 315 309 307 313 133 136 117 146 271 319 314 296 220 248 282 276 262 261 223 201 171 229 273 223 263 264 284 281 286
209 205 203 203 198 193 191 195 190 199 207 216 228 256 312 320 322 322 317 309 296 117 114 163 132 65 277 313 282 294 263 252 246 281 323 301 19 288 239 133 259 287 288 290 292 302 289
211 208 202 200 197 190 189 190 192 198 199 203 232 244 306 321 325 321 330 355 15 337 46 215 162 267 288 280 275 275 286 320 276 124 242 240 222 233 253 218 248 260 270 274 263 257 269
206 207 203 197 191 186 187 193 187 192 197 203 216 237 304 323 324 326 336 76 151 189 320 272 243 260 261 218 315 288 43 287 301 289 296 296 260 256 241 246 257 262 264 262 276 267 271
212 206 199 194 187 182 186 183 190 190 186 203 210 221 267 320 324 352 80 71 34 125 78 297 216 227 271 151 270 284 352 300 271 275 268 247 257 275 237 255 263 256 255 269 272 276 275
216 200 197 189 181 176 179 180 178 187 189 191 214 209 306 326 138 343 84 343 154 126 63 275 259 292 342 272 284 319 172 251 311 298 275 264 278 250 254 257 255 265 255 257 282 305 275
212 199 192 183 176 173 170 171 174 179 188 193 192 207 6 285 140 115 138 357 152 44 90 346 222 135 318 59 283 312 305 355 244 266 309 258 283 274 274 259 256 274 263 243 249 259 291
209 195 182 176 169 168 165 161 166 173 186 191 194 162 203 80 62 199 315 88 63 33 240 1 25 346 342 327 333 295 334 317 249 306 216 255 211 240 236 256 245 255 271 243 250 242 246
200 188 175 170 163 158 159 164 159 167 184 191 186 183 151 124 152 133 148 93 41 189 3 10 341 336 346 319 332 7 325 334 1 331 325 305 206 253 217 267 229 186 23 317 281 317 239
189 179 171 162 155 154 156 165 160 166 180 182 171 185 170 178 193 55 97 89 204 83 330 70 295 319 353 7 344 329 316 336 349 350 307 311 322 186 200 213 209 206 172 209 258 250 272
174 167 163 155 151 151 155 157 155 165 175 171 161 142 120 245 206 117 109 105 196 181 219 317 329 8 332 349 222 357 308 291 346 351 310 302 275 320 283 263 141 290 183 236 285 298 256
161 157 154 147 147 148 153 154 156 163 175 170 143 120 177 156 145 94 89 190 178 126 107 14 128 123 336 318 3 356 311 284 321 330 335 278 284 268 290 350 199 242 322 340 86 297 335
153 152 147 144 144 146 146 154 159 163 173 168 94 109 148 155 98 69 158 200 149 87 129 170 198 147 232 275 257 334 294 295 294 321 324 287 215 299 311 34 315 332 306 219 211 167 107
148 145 141 139 139 143 149 159 160 164 161 137 135 104 146 153 98 255 157 190 120 87 76 123 142 185 198 177 295 303 245 227 284 320 303 300 288 280 282 152 133 321 274 251 189 320 60
134 131 127 132 139 142 146 156 162 162 168 149 102 112 48 120 151 237 232 133 112 123 234 189 238 171 93 184 343 203 256 256 292 321 292 333 288 305 305 130 199 211 252 289 84 53 184
111 118 128 132 132 138 151 154 157 170 184 103 106 112 47 59 209 141 139 136 138 290 229 226 230 90 63 294 185 276 279 299 313 268 293 294 275 293 279 280 318 286 269 313 67 343 87
114 117 126 123 132 141 146 152 159 153 160 107 51 170 173 183 233 141 114 143 139 197 217 83 90 59 229 314 303 224 255 309 307 290 345 10 281 8 37 46 47 39 30 137 86 43 49
120 121 122 134 138 141 146 147 146 146 139 86 128 135 54 120 128 113 146 191 178 201 175 279 161 298 278 214 211 289 301 253 257 318 345 8 315 301 60 68 45 43 30 44 66 80 92
122 125 126 130 136 137 136 146 144 145 153 107 111 31 108 5 116 117 197 170 193 158 2 87 134 352 279 256 249 265 260 260 254 285 298 281 313 315 328 10 318 36 13 32 49 32 19
128 132 134 135 135 134 139 135 129 132 137 115 134 108 91 135 126 184 154 139 122 138 141 5 15 10 255 307 295 272 246 241 229 255 218 258 294 266 273 104 43 112 26 31 58 34 30
135 138 138 140 135 133 132 129 122 99 124 100 110 104 116 97 108 87 125 126 89 42 62 196 289 248 308 312 329 328 346 13 198 263 342 52 295 285 328 53 123 79 21 335 12 44 18
134 136 137 133 127 128 128 126 116 100 109 86 57 84 94 119 267 67 104 119 114 45 358 338 322 312 26 24 19 351 46 323 322 330 35 57 58 335 81 75 84 37 330 317 289 62 26
134 135 131 127 129 130 126 121 109 92 92 96 51 26 88 104 265 124 141 138 118 115 137 307 329 349 31 21 54 23 309 314 317 349 335 344 21 20 12 95 85 346 324 325 255 90 45
134 133 132 131 130 129 127 120 108 97 103 83 94 16 111 103 295 22 80 117 88 88 123 282 36 347 23 53 33 325 329 16 276 351 346 23 349 16 329 71 48 353 30 65 90 94 91
134 131 134 132 130 129 126 120 110 96 87 93 78 348 45 87 159 298 294 254 137 172 134 25 172 218 174 82 10 347 351 331 321 32 4 39 25 54 18 88 68 24 62 57 64 52 85